Content
SEND FEEDBACK

Daily
Averages
Monthly
Summary
China

KASHI, CHINA


Home > Asia > China
Elevation: 4236 feet     Latitude: 39 28N     Longitude: 075 58E

WEATHER
 
SELECT A DAY
Number of Records: 113,454;   Date Range: 7/6/03 - 10/20/14
 
SHARE

PRINT THIS DATA

[ ← Previous Day ]
WEATHER ALMANAC - JULY 21, 2013
[ Next Day → ]
[ °C ]   °F
Weather ElementAverageHighLow
Temperature83.1 °F94 °F (8:00 pm)73 °F (5:00 am)
Dewpoint46.8 °F58 °F (2:00 am)39.2 °F (9:00 pm)
Humidity27.1 %50 % (5:00 am)11 % (8:00 pm)
Barometer29.59 in29.71 in (1:00 am)29.18 in (8:00 pm)
Wind Speed10.4 mph31.3 mph (11:00 pm)
Wind Gust42.5 mph (11:00 pm)
Weather ElementAverage
Visibility8 mi
Wind DirectionSSE (171.4 °)

Weather ElementTotal
Precipitation---
Cooling Degree Days18.5 (Base 65)
Growing Degree Days33.5 (Base 50)
Averaged from 36 records on July 21, 2013
WEATHER CONDITIONS BREAKOUT
WIND DIRECTION BREAKOUT
WEATHER BY HOUR - JULY 21, 2013
[ °C ]   °F
Local TimeTemperatureDewpointHumidityBarometerVisibilityWind DirectionWind SpeedGust SpeedPrecipitationEventsConditions
12:30 AM84.2 °F46.4 °F27 %29.68 inNNW (340°)6.7 mphClear
1:00 AM82.4 °F48.2 °F30 %29.71 inNNW (330°)8.9 mphClear
1:30 AM82.4 °F48.2 °F30 %29.71 inNNW (330°)8.9 mphClear
2:00 AM77.0 °F58.0 °F41 %29.39 in12.0 miWSW (250°)2.2 mphScattered Clouds
2:00 AM82.4 °F46.4 °F28 %29.71 inNNW (330°)11.2 mphClear
2:30 AM82.4 °F46.4 °F28 %29.71 inNNW (330°)11.2 mphClear
3:00 AM80.6 °F46.4 °F30 %29.71 inNNW (330°)11.2 mphClear
3:30 AM80.6 °F44.6 °F28 %29.71 inNW (320°)11.2 mphClear
4:00 AM80.6 °F44.6 °F28 %29.68 inNNW (330°)11.2 mphClear
4:30 AM80.6 °F44.6 °F28 %29.68 inWNW (290°)6.7 mphClear
5:00 AM73.0 °F58.0 °F50 %29.37 in12.0 miWSW (250°)4.5 mphClear
5:00 AM80.6 °F44.6 °F28 %29.68 inNW (320°)11.2 mphClear
5:30 AM78.8 °F44.6 °F30 %29.68 inNNW (340°)11.2 mphClear
6:00 AM78.8 °F41.0 °F26 %29.68 inVariable4.5 mphClear
7:00 AM78.8 °F44.6 °F30 %29.68 inNNE (30°)6.7 mphClear
8:00 AM77.0 °F47.0 °F23 %29.36 in12.0 miNE (40°)4.5 mphScattered Clouds
8:00 AM77.0 °F44.6 °F32 %29.71 in6.2 miNE (40°)8.9 mphPartly Cloudy
9:00 AM77.0 °F46.4 °F34 %29.71 in6.2 miVariable8.9 mphPartly Cloudy
10:00 AM78.8 °F44.6 °F30 %29.71 inNE (40°)13.4 mphClear
11:00 AM82.0 °F48.0 °F21 %29.37 in12.0 miNE (40°)6.7 mphClear
11:00 AM80.6 °F46.4 °F30 %29.68 inEast (80°)11.2 mphClear
12:00 PM82.4 °F48.2 °F30 %29.68 in5.6 miESE (110°)11.2 mph
1:00 PM86.0 °F48.2 °F27 %29.68 in5.6 miEast (100°)11.2 mph
2:00 PM87.0 °F50.0 °F19 %29.32 in12.0 miENE (70°)6.7 mphClear
2:00 PM87.8 °F46.4 °F24 %29.65 inESE (110°)13.4 mphClear
3:00 PM89.6 °F50.0 °F26 %29.62 in5.6 miESE (110°)11.2 mph
4:00 PM91.4 °F51.8 °F26 %29.59 in5.6 miESE (120°)11.2 mphPartly Cloudy
5:00 PM91.4 °F46.4 °F21 %29.56 in6.2 miSE (140°)11.2 mphPartly Cloudy
6:00 PM93.2 °F46.4 °F20 %29.53 inSSE (150°)8.9 mph20.1 mphClear
7:00 PM91.4 °F48.2 °F23 %29.53 inEast (100°)8.9 mphClear
8:00 PM94.0 °F45.0 °F11 %29.18 in12.0 miNE (40°)6.7 mphScattered Clouds
8:00 PM91.4 °F42.8 °F18 %29.53 in6.2 miENE (70°)8.9 mphMostly Cloudy
9:00 PM87.8 °F39.2 °F18 %29.53 in6.2 miVariable22.4 mphMostly Cloudy
10:00 PM86.0 °F41.0 °F20 %29.53 in6.2 miVariable20.1 mphMostly Cloudy
11:00 PM79.0 °F48.0 °F23 %29.32 in7.0 miNNW (340°)11.2 mphRainLight Rain Showers
11:00 PM77.0 °F50.0 °F39 %29.59 in5.0 miNorth (350°)31.3 mph42.5 mphRain-ThunderstormLight Thunderstorms and Rain
Hourly data recorded from ZWSH, located miles away from Kashi, China







STORIES FROM OUR PARTNERS